This demonstration page uses our WeatherBlox Daily Observations layout. Learn more.

Left ArrowRight Arrow

30.21309, -93.2044

Hourly Observations for March 7, 2015

Temp ( °F °C ) Dew Point ( °F °C ) Humidity (%) Winds ( mph kmh ) Pressure ( in mb ) Visibility ( mi km ) Precip ( " mm )
12:15 am 00:15 Clear 37 2.6 27 -2.6 69 69 Calm 30.53 1034 10 16 0.00 0.00
12:35 am 00:35 Clear 35 1.4 28 -2.1 78 78 Calm 30.53 1034 10 16 0.00 0.00
12:55 am 00:55 Clear 37 2.5 28 -2.5 70 70 Calm 30.53 1034 10 16 0.00 0.00
1:15 am 01:15 Clear 37 2.5 27 -2.7 69 69 Calm 30.53 1034 10 16 0.00 0.00
1:35 am 01:35 Clear 36 2.2 27 -2.7 70 70 NNE 5 7 30.53 1034 10 16 0.00 0.00
1:55 am 01:55 Clear 36 2 28 -2.5 72 72 NE 5 7 30.50 1033 10 16 0.00 0.00
2:15 am 02:15 Clear 36 2 27 -2.7 71 71 NNE 7 11 30.48 1032 10 16 0.00 0.00
2:35 am 02:35 Clear 35 1.8 27 -2.7 72 72 NE 3 6 30.48 1032 10 16 0.00 0.00
2:55 am 02:55 Clear 35 1.5 27 -3 72 72 NE 3 6 30.48 1032 10 16 0.00 0.00
3:15 am 03:15 Clear 34 1.2 26 -3.1 73 73 Calm 30.48 1032 10 16 0.00 0.00
6:00 am 06:00 Mostly Clear 34 1 27 -3 75 75 undefined N/A 30.48 1032 10 16 0.00 0.00
6:50 am 06:50 Mostly Sunny 34 1 27 -3 75 75 Calm 30.53 1034 10 16 0.00 0.00
7:50 am 07:50 Mostly Sunny 37 3 27 -3 65 65 Calm 30.50 1033 10 16 0.00 0.00
8:50 am 08:50 Mostly Sunny 43 6 27 -3 53 53 E 5 7 30.53 1034 10 16 0.00 0.00
9:50 am 09:50 Mostly Sunny 48 9 28 -2 46 46 ESE 7 11 30.53 1034 10 16 0.00 0.00
10:50 am 10:50 Mostly Sunny 52 11 28 -2 41 41 Calm 30.50 1033 10 16 0.00 0.00
11:50 am 11:50 Mostly Sunny 54 12 25 -4 33 33 NE 5 7 30.48 1032 10 16 0.00 0.00
12:50 pm 12:50 Mostly Sunny 57 14 27 -3 31 31 NE 5 7 30.42 1030 10 16 0.00 0.00
1:50 pm 13:50 Mostly Sunny 61 16 30 -1 31 31 E 8 13 30.39 1029 10 16 0.00 0.00
8:15 pm 20:15 Cloudy 54 12.2 38 3.6 56 56 SW 5 7 30.36 1028 10 16 0.00 0.00
8:35 pm 20:35 Cloudy 54 12.3 38 3.3 54 54 SW 3 6 30.36 1028 10 16 0.00 0.00
8:55 pm 20:55 Cloudy 55 12.5 39 3.7 55 55 SW 3 6 30.36 1028 10 16 0.00 0.00
9:15 pm 21:15 Cloudy 54 12 40 4.6 61 61 Calm 30.36 1028 10 16 0.00 0.00
9:35 pm 21:35 Cloudy 54 12 41 4.9 62 62 Calm 30.33 1027 10 16 0.00 0.00
9:50 pm 21:50 Cloudy 54 12 43 6 67 67 S 3 6 30.33 1027 10 16 0.00 0.00
9:55 pm 21:55 Cloudy 53 11.5 42 5.7 68 68 S 3 6 30.33 1027 10 16 0.00 0.00
10:15 pm 22:15 Cloudy 53 11.4 42 5.7 68 68 SSW 3 6 30.36 1028 10 16 0.00 0.00
10:35 pm 22:35 Cloudy 53 11.5 42 5.8 68 68 SW 5 7 30.36 1028 10 16 0.00 0.00
10:55 pm 22:55 Cloudy 53 11.7 40 4.3 61 61 WSW 5 7 30.36 1028 10 16 0.00 0.00
11:15 pm 23:15 Cloudy 54 12 39 4.1 59 59 Calm 30.33 1027 10 16 0.00 0.00
11:35 pm 23:35 Cloudy 53 11.4 41 5.1 65 65 Calm 30.33 1027 10 16 0.00 0.00
11:55 pm 23:55 Cloudy 53 11.5 41 4.8 64 64 Calm 30.30 1026 10 16 0.00 0.00

Powered by AerisWeather